TimeCST,TemperatureF,Dew PointF,Humidity,Sea Level PressureIn,VisibilityMPH,Wind Direction,Wind SpeedMPH,Gust SpeedMPH,PrecipitationIn,Events,Conditions,WindDirDegrees,DateUTC
12:15 AM,35.6,30.2,81,29.60,10.0,SE,6.9,-,N/A,,Clear,140,2014-02-20 06:15:00
12:35 AM,33.8,30.2,87,29.60,10.0,SE,8.1,-,N/A,,Clear,130,2014-02-20 06:35:00
12:55 AM,33.8,30.2,87,29.60,10.0,Calm,Calm,-,N/A,,Mostly Cloudy,0,2014-02-20 06:55:00
1:15 AM,33.8,30.2,87,29.60,10.0,Calm,Calm,11.5,N/A,,Overcast,0,2014-02-20 07:15:00
1:35 AM,33.8,30.2,87,29.61,10.0,Calm,Calm,-,N/A,,Overcast,0,2014-02-20 07:35:00
1:55 AM,33.8,30.2,87,29.61,10.0,NE,3.5,-,N/A,,Overcast,50,2014-02-20 07:55:00
2:15 AM,33.8,30.2,87,29.59,10.0,SE,6.9,-,N/A,,Overcast,140,2014-02-20 08:15:00
2:35 AM,33.8,30.2,87,29.60,10.0,North,4.6,-,N/A,,Overcast,360,2014-02-20 08:35:00
2:55 AM,33.8,32.0,93,29.59,10.0,NNE,6.9,-,N/A,,Overcast,20,2014-02-20 08:55:00
3:15 AM,33.8,32.0,93,29.58,10.0,NE,6.9,-,N/A,,Mostly Cloudy,40,2014-02-20 09:15:00
3:35 AM,32.0,32.0,100,29.57,10.0,NE,4.6,-,N/A,,Overcast,50,2014-02-20 09:35:00
3:55 AM,33.8,32.0,93,29.58,10.0,North,5.8,-,N/A,,Overcast,350,2014-02-20 09:55:00
4:15 AM,32.0,32.0,100,29.57,10.0,NNE,5.8,-,N/A,,Overcast,30,2014-02-20 10:15:00
4:35 AM,33.8,32.0,93,29.57,10.0,NE,4.6,-,N/A,,Overcast,40,2014-02-20 10:35:00
4:55 AM,33.8,32.0,93,29.57,10.0,East,5.8,-,N/A,,Overcast,80,2014-02-20 10:55:00
5:15 AM,33.8,32.0,93,29.56,10.0,East,5.8,-,N/A,,Overcast,90,2014-02-20 11:15:00
5:35 AM,33.8,33.8,100,29.55,10.0,East,4.6,-,N/A,,Overcast,90,2014-02-20 11:35:00
5:55 AM,33.8,33.8,100,29.54,10.0,NE,8.1,-,N/A,,Overcast,50,2014-02-20 11:55:00
6:15 AM,33.8,33.8,100,29.50,10.0,NE,9.2,-,N/A,,Overcast,40,2014-02-20 12:15:00
6:35 AM,33.8,33.8,100,29.51,9.0,ENE,6.9,-,N/A,,Overcast,70,2014-02-20 12:35:00
6:55 AM,33.8,33.8,100,29.53,10.0,North,4.6,-,N/A,,Overcast,10,2014-02-20 12:55:00
7:15 AM,33.8,33.8,100,29.53,10.0,Variable,6.9,-,N/A,,Overcast,0,2014-02-20 13:15:00
7:35 AM,33.8,33.8,100,29.55,8.0,Calm,Calm,-,N/A,,Overcast,0,2014-02-20 13:35:00
7:55 AM,33.8,33.8,100,29.54,3.0,NNE,4.6,-,N/A,,Overcast,20,2014-02-20 13:55:00
8:15 AM,33.8,33.8,100,29.54,1.2,North,4.6,-,N/A,Rain,Light Rain,360,2014-02-20 14:15:00
8:35 AM,33.8,33.8,100,29.55,1.2,NW,8.1,-,N/A,Rain,Light Rain,320,2014-02-20 14:35:00
8:55 AM,32.0,32.0,100,29.52,0.5,NNW,12.7,-,0.01,,Overcast,340,2014-02-20 14:55:00
9:15 AM,32.0,32.0,100,29.51,0.2,North,18.4,-,N/A,Snow,Light Snow,350,2014-02-20 15:15:00
9:35 AM,32.0,32.0,100,29.49,-9999.0,North,18.4,24.2,N/A,Snow,Light Snow,350,2014-02-20 15:35:00
9:55 AM,32.0,32.0,100,29.46,0.2,North,21.9,-,0.03,,Overcast,360,2014-02-20 15:55:00
10:15 AM,32.0,32.0,100,29.48,0.2,North,20.7,28.8,N/A,,Overcast,350,2014-02-20 16:15:00
10:35 AM,32.0,32.0,100,29.49,0.2,NNW,20.7,-,N/A,Snow,Light Snow,340,2014-02-20 16:35:00
10:55 AM,33.8,33.8,100,29.50,0.5,NW,23.0,29.9,N/A,,Overcast,320,2014-02-20 16:55:00
1:15 PM,33.8,33.8,100,29.43,0.5,NNW,21.9,28.8,N/A,Snow,Light Snow,330,2014-02-20 19:15:00
1:35 PM,33.8,33.8,100,29.43,1.0,NW,21.9,27.6,N/A,Snow,Light Snow,320,2014-02-20 19:35:00
1:55 PM,33.8,33.8,100,29.42,2.5,NNW,24.2,29.9,N/A,Snow,Light Snow,330,2014-02-20 19:55:00
2:15 PM,33.8,33.8,100,29.41,2.0,NNW,27.6,35.7,N/A,Snow,Light Snow,330,2014-02-20 20:15:00
2:35 PM,33.8,33.8,100,29.42,1.8,NW,21.9,29.9,N/A,Snow,Light Snow,310,2014-02-20 20:35:00
5:15 PM,32.0,30.2,93,29.50,1.8,WNW,28.8,41.4,N/A,Snow,Light Snow,300,2014-02-20 23:15:00
5:35 PM,32.0,30.2,93,29.51,1.2,WNW,29.9,39.1,N/A,Rain,Light Rain,300,2014-02-20 23:35:00
5:55 PM,32.0,30.2,93,29.52,1.5,WNW,38.0,48.3,N/A,Rain,Light Rain,300,2014-02-20 23:55:00
6:15 PM,30.2,30.2,100,29.53,0.2,WNW,29.9,44.9,N/A,Snow,Light Snow,290,2014-02-21 00:15:00
6:35 PM,28.4,28.4,100,29.54,0.5,WNW,31.1,40.3,N/A,,Overcast,290,2014-02-21 00:35:00
6:55 PM,26.6,26.6,100,29.55,0.2,WNW,33.4,41.4,N/A,,Overcast,290,2014-02-21 00:55:00
7:15 PM,26.6,26.6,100,29.56,0.5,WNW,35.7,42.6,N/A,Rain,Freezing Rain,290,2014-02-21 01:15:00
7:35 PM,26.6,24.8,93,29.57,0.2,WNW,38.0,44.9,N/A,Snow,Light Snow,290,2014-02-21 01:35:00
7:55 PM,24.8,24.8,100,29.57,0.2,WNW,35.7,44.9,N/A,,Overcast,290,2014-02-21 01:55:00
8:15 PM,24.8,23.0,93,29.58,0.2,WNW,33.4,46.0,N/A,Snow,Light Snow,300,2014-02-21 02:15:00
8:35 PM,24.8,23.0,93,29.58,0.5,WNW,35.7,43.7,N/A,Snow,Light Snow,300,2014-02-21 02:35:00
8:55 PM,23.0,21.2,93,29.59,0.5,WNW,32.2,40.3,N/A,Snow,Light Snow,300,2014-02-21 02:55:00
9:15 PM,23.0,21.2,93,29.59,1.8,WNW,29.9,42.6,N/A,Snow,Light Snow,300,2014-02-21 03:15:00
9:35 PM,23.0,19.4,86,29.59,6.0,NW,31.1,40.3,N/A,,Overcast,310,2014-02-21 03:35:00
9:55 PM,21.2,17.6,86,29.60,9.0,WNW,33.4,-,N/A,,Overcast,300,2014-02-21 03:55:00
10:15 PM,21.2,17.6,86,29.60,3.0,NW,29.9,44.9,N/A,,Haze,310,2014-02-21 04:15:00
10:35 PM,21.2,15.8,80,29.60,5.0,NW,32.2,42.6,N/A,,Haze,310,2014-02-21 04:35:00
10:55 PM,21.2,15.8,80,29.59,9.0,NW,32.2,39.1,N/A,,Overcast,310,2014-02-21 04:55:00
11:15 PM,21.2,15.8,80,29.59,6.0,WNW,26.5,41.4,N/A,,Haze,300,2014-02-21 05:15:00
11:35 PM,19.4,15.8,86,29.59,10.0,WNW,29.9,36.8,N/A,,Overcast,300,2014-02-21 05:35:00
11:55 PM,19.4,15.8,86,29.59,10.0,WNW,27.6,35.7,N/A,,Overcast,300,2014-02-21 05:55:00